DW9987 Weather Reports


time (UTC)temp
C
wind
direction
speed
KPH
gust
KPH
rain 1hr
cm
rain 24hr
cm
rain mn
cm
humidity
%
barometer
mb
20260831174505 28 229 4.8 11.3 0.00 0.30 0.18 74 1013.3
20260831173005 27 160 1.6 14.5 0.00 0.30 0.18 75 1013.3
20260831171558 26 193 3.2 8.0 0.00 0.30 0.18 81 1013.6
20260831170054 25 263 3.2 12.9 0.00 0.30 0.18 83 1013.8
20260831164606 25 180 6.4 17.7 0.00 0.30 0.18 85 1014.2
20260831163047 23 153 0.0 4.8 0.00 0.30 0.18 92 1014.2
20260831161559 22 139 0.0 3.2 0.10 0.30 0.18 94 1014.2
20260831160059 21 214 0.0 4.8 0.10 0.30 0.18 94 1014.2
20260831154549 21 190 0.0 4.8 0.10 0.30 0.18 93 1014.4
20260831153044 21 198 0.0 4.8 0.10 0.30 0.18 92 1014.5
20260831151546 21 190 0.0 4.8 0.00 0.20 0.08 93 1014.7
20260831150042 21 213 0.0 8.0 0.00 0.20 0.08 93 1014.6
20260831144539 21 236 0.0 3.2 0.00 0.20 0.08 94 1014.4
20260831143039 20 230 0.0 4.8 0.00 0.20 0.08 95 1014.4
20260831141538 20 346 0.0 0.0 0.00 0.20 0.08 94 1014.4
20260831140038 20 234 0.0 3.2 0.00 0.20 0.08 94 1014.4
20260831134538 20 223 0.0 3.2 0.05 0.25 0.08 93 1014.4
20260831133036 20 224 0.0 0.0 0.08 0.25 0.08 93 1014.3
20260831131552 20 225 0.0 0.0 0.08 0.25 0.08 92 1014.2
20260831130041 20 220 0.0 0.0 0.08 0.25 0.08 91 1014.3
20260831124537 21 221 0.0 0.0 0.03 0.33 0.03 89 1014.4
20260831123028 21 221 0.0 0.0 0.00 0.30 0.00 88 1014.0
20260831121530 21 204 0.0 8.0 0.00 0.30 0.00 86 1013.7
20260831120026 21 206 1.6 8.0 0.00 0.30 0.00 86 1013.4
20260831114525 21 207 1.6 4.8 0.00 0.38 0.00 87 1013.5
20260831113025 21 202 0.0 4.8 0.00 0.38 0.00 88 1013.3
20260831111533 21 195 0.0 4.8 0.00 0.38 0.00 88 1013.4
20260831110022 21 195 0.0 4.8 0.00 0.38 0.00 85 1013.4
20260831104526 21 200 0.0 6.4 0.00 0.38 0.00 83 1013.6
20260831103021 21 194 0.0 3.2 0.00 0.38 0.00 83 1013.6
20260831101521 21 210 0.0 3.2 0.00 0.38 0.00 84 1013.5
20260831100022 21 204 0.0 6.4 0.00 0.38 0.00 85 1013.2
20260831094531 21 242 0.0 3.2 0.00 0.43 0.00 87 1013.3
20260831093041 21 236 0.0 3.2 0.00 0.43 0.00 88 1013.3
20260831091520 21 221 0.0 3.2 0.00 0.43 0.00 88 1013.5
20260831090015 21 265 0.0 0.0 0.00 0.43 0.00 87 1013.6
20260831084514 21 208 0.0 0.0 0.00 0.43 0.00 87 1013.3
20260831083012 21 199 0.0 6.4 0.00 0.43 0.00 86 1013.5
20260831081511 22 213 0.0 6.4 0.00 0.43 0.00 86 1013.3
20260831080009 22 225 0.0 6.4 0.00 0.43 0.00 85 1013.4
20260831074508 22 216 1.6 8.0 0.00 0.43 0.00 84 1013.5
20260831073006 22 195 3.2 8.0 0.00 0.43 0.00 84 1013.5
20260831071506 22 199 3.2 11.3 0.00 0.43 0.00 84 1013.6
20260831070003 22 226 4.8 11.3 0.00 0.43 0.00 84 1013.6
20260831064502 23 225 3.2 9.7 0.00 0.43 0.00 84 1013.7
20260831063002 23 201 4.8 11.3 0.00 0.43 0.00 83 1013.7
20260831061600 23 224 4.8 16.1 0.00 0.43 0.00 84 1013.6
20260831060100 23 211 4.8 11.3 0.00 0.43 0.00 85 1013.9
20260831054559 23 192 3.2 11.3 0.00 0.46 0.00 86 1013.7
20260831053129 23 227 3.2 11.3 0.00 0.46 0.00 87 1013.7
20260831051555 23 197 1.6 9.7 0.00 0.46 0.00 87 1013.7
20260831050053 23 192 3.2 14.5 0.00 0.46 0.00 86 1013.9
20260831044638 23 198 3.2 12.9 0.00 0.46 0.46 88 1013.9
20260831043052 23 196 4.8 16.1 0.00 0.46 0.46 91 1014.0
20260831041557 22 225 4.8 11.3 0.00 0.46 0.46 95 1014.1
20260831040051 22 209 1.6 4.8 0.00 0.46 0.46 96 1014.5
20260831034553 22 155 0.0 0.0 0.00 0.46 0.46 95 1014.5
20260831033105 22 203 0.0 4.8 0.00 0.46 0.46 95 1014.5
20260831031552 22 204 0.0 1.6 0.00 0.46 0.46 95 1014.8
20260831030050 22 206 0.0 4.8 0.00 0.46 0.46 95 1015.0
20260831024549 22 204 0.0 6.4 0.00 0.46 0.46 95 1014.8
20260831023048 22 242 1.6 4.8 0.03 0.46 0.46 95 1015.2
20260831021548 22 242 0.0 0.0 0.03 0.46 0.46 95 1015.5
20260831020048 22 242 0.0 0.0 0.05 0.46 0.46 95 1015.2
20260831014549 22 242 0.0 0.0 0.05 0.46 0.46 95 1014.7
20260831013047 22 242 0.0 0.0 0.03 0.43 0.43 94 1014.9
20260831011554 22 242 0.0 0.0 0.03 0.43 0.43 95 1015.0
20260831010059 22 242 0.0 0.0 0.00 0.41 0.41 94 1014.9
20260831004545 22 242 0.0 0.0 0.00 0.41 0.41 94 1014.7
20260831003045 22 201 0.0 0.0 0.00 0.41 0.41 94 1014.5
20260831001544 22 209 0.0 1.6 0.00 0.41 0.41 94 1013.9
20260831000045 22 323 0.0 0.0 0.00 0.41 0.41 94 1014.8
20260830234543 22 323 0.0 0.0 0.03 0.41 0.41 93 1015.2
20260830233043 22 323 1.6 4.8 0.05 0.41 0.41 93 1015.0
20260830231542 22 187 0.0 0.0 0.05 0.41 0.41 93 1014.7
20260830230042 23 187 0.0 3.2 0.05 0.41 0.41 92 1014.7
20260830224541 23 178 0.0 0.0 0.03 0.41 0.38 91 1015.2
20260830223041 23 178 0.0 0.0 0.00 0.38 0.36 90 1015.5
20260830221540 23 178 0.0 0.0 0.00 0.38 0.36 89 1015.5
20260830220040 23 178 0.0 0.0 0.00 0.38 0.36 89 1015.4
20260830214539 24 178 0.0 0.0 0.00 0.38 0.36 88 1015.1
20260830213053 24 178 0.0 0.0 0.00 0.38 0.36 87 1014.9
20260830211539 25 178 0.0 0.0 0.03 0.38 0.36 84 1015.1
20260830210038 25 196 0.0 1.6 0.03 0.38 0.36 82 1015.4
20260830204542 25 193 3.2 6.4 0.03 0.38 0.36 78 1015.4
20260830203037 25 188 1.6 8.0 0.03 0.38 0.36 78 1015.4
20260830201537 24 194 0.0 4.8 0.00 0.36 0.33 85 1015.5
20260830200036 24 195 0.0 0.0 0.00 0.36 0.33 86 1015.5
20260830194536 25 194 0.0 0.0 0.00 0.36 0.33 81 1015.4
20260830193036 25 252 0.0 3.2 0.00 0.36 0.33 76 1015.5
20260830191536 25 261 0.0 6.4 0.00 0.36 0.33 76 1015.4
20260830190034 26 197 0.0 8.0 0.00 0.36 0.33 74 1015.0
20260830184539 26 203 4.8 12.9 0.00 0.36 0.33 72 1015.0
20260830183033 26 219 3.2 12.9 0.00 0.36 0.33 71 1014.7
20260830181533 26 194 3.2 14.5 0.00 0.36 0.33 72 1014.6
20260830180033 26 199 9.7 17.7 0.00 0.36 0.33 74 1014.3